[Date Prev][Date Next][Thread Prev][Thread Next] - [Date Index][Thread Index][Author Index]

2 Line ISS Keps 10-10



ISS
1 25544U 98067A   06282.93793891  .00017929  00000-0  11255-3 0  8294
2 25544 051.6369 316.3023 0013283 078.3109 340.1773 15.76742132451266
----
Sent via sarex@amsat.org. Opinions expressed are those of the author.
Not an AMSAT member? Join now to support the amateur satellite program!
Subscription settings: http://amsat.org/mailman/listinfo/sarex



AMSAT Top AMSAT Home